Theta_e
314 314 313 317 316 316 316 320 319 318 317 320 319 318 318 318 317 323 325 327 329 331 331 332 333 334 334 335 335 335 335 334 332 331 331 331 331 330 329 329 329 329 329 328
315 315 314 314 315 315 315 316 318 316 315 319 320 321 320 319 319 318 321 324 325 325 325 325 327 329 330 329 331 332 331 332 331 332 330 330 329 330 330 330 330 330 330 330
310 310 314 313 314 314 315 316 314 315 315 314 315 318 320 320 319 319 318 318 320 321 322 322 321 323 327 327 327 327 328 329 329 329 329 329 329 330 330 330 330 330 330 330
310 309 311 312 313 314 316 314 315 315 314 314 312 316 317 317 315 315 316 317 318 318 317 317 317 318 319 320 322 321 322 326 327 328 329 329 330 330 330 331 331 331 330 330
309 310 312 312 311 313 315 313 313 314 315 314 313 311 314 310 312 312 311 310 310 310 311 312 314 314 315 316 317 316 317 318 319 319 320 320 320 320 320 321 321 321 323 326
310 310 310 309 311 312 313 313 313 315 315 317 314 313 314 314 310 309 308 309 310 309 308 307 308 311 312 313 314 314 314 314 314 314 314 313 313 312 312 312 312 313 314 316
309 311 311 311 312 312 314 313 318 319 318 318 310 312 314 313 312 310 309 308 308 308 309 307 307 308 308 309 310 312 313 313 312 311 310 310 310 310 310 310 310 311 312 313
312 310 311 311 312 312 312 313 317 321 318 316 309 314 314 311 309 307 307 307 307 308 309 310 309 309 309 309 309 310 310 310 310 310 311 311 311 311 311 311 311 311 311 311
313 311 310 311 311 312 313 312 313 315 312 316 314 313 312 313 308 308 308 307 308 310 309 310 310 310 310 310 311 311 312 312 312 312 312 312 313 313 315 315 314 312 311 312
312 313 311 311 311 311 312 312 313 313 317 316 314 313 314 311 309 309 309 309 309 308 309 310 311 311 311 311 311 311 311 311 311 310 310 310 310 309 309 310 312 315 315 314
311 312 313 311 312 312 312 313 312 313 313 315 313 312 310 309 308 309 310 308 309 309 309 309 310 311 310 310 310 309 308 308 307 307 307 307 308 308 308 308 308 309 311 315
306 312 313 312 311 310 310 312 312 313 314 312 312 312 310 308 308 308 309 308 308 308 309 309 310 310 309 307 307 306 305 305 305 305 305 305 305 306 307 307 307 307 307 307
308 310 315 312 312 311 311 311 311 312 311 313 314 313 309 309 309 310 310 309 309 308 309 310 310 309 308 306 305 305 305 305 305 305 304 304 304 304 305 306 307 307 306 306
307 308 309 312 310 310 313 311 311 311 314 312 313 311 311 311 311 310 310 309 309 308 309 310 309 308 306 305 305 305 306 306 305 305 305 304 304 304 305 305 305 306 306 306
306 308 307 308 307 308 308 308 311 314 312 313 312 313 312 311 311 310 309 309 307 308 308 309 309 308 306 305 305 306 306 306 306 305 304 304 304 304 304 305 305 305 305 305
305 306 304 305 304 305 306 306 306 307 308 310 310 311 310 309 309 308 308 309 308 308 308 308 308 306 306 307 307 307 307 306 306 305 304 304 304 304 304 304 304 304 305 305
305 304 304 304 302 304 305 305 304 305 306 307 307 307 307 307 307 307 307 308 308 309 308 307 308 307 308 308 307 307 307 307 306 305 305 304 304 304 304 303 303 303 304 304
303 303 305 304 302 302 304 302 304 306 307 306 306 307 307 305 305 305 306 307 307 307 308 308 308 308 308 308 308 307 306 307 307 306 305 305 304 303 302 300 300 300 301 302
302 303 303 303 303 302 301 300 302 303 302 302 302 303 304 304 305 305 305 304 304 303 303 304 305 306 307 307 308 308 307 307 306 305 305 304 303 301 301 300 299 299 299 300
299 302 303 302 302 301 301 302 302 303 303 303 303 304 303 303 302 303 304 304 303 303 303 303 304 305 305 305 308 307 307 306 306 305 304 303 300 300 300 299 298 298 298 299
299 301 303 304 303 302 301 301 302 301 301 302 302 302 302 302 302 302 302 303 302 303 302 303 304 304 304 305 306 308 306 305 304 304 302 300 300 300 299 298 297 297 297 298
300 301 302 302 303 302 302 301 300 301 302 301 301 301 301 301 301 301 301 302 302 303 302 302 303 303 303 305 305 305 305 304 303 301 300 299 299 299 298 297 296 296 296 297
300 300 302 302 302 301 300 301 300 301 301 301 302 302 301 300 300 301 301 302 302 302 303 302 302 302 303 304 302 302 303 302 301 299 299 299 298 298 297 296 296 296 296 296
298 299 299 301 301 300 300 300 300 300 300 300 300 300 300 300 300 301 301 302 302 302 301 302 302 301 301 302 301 300 298 298 298 299 298 298 297 296 296 296 295 295 295 296
301 298 300 300 300 300 300 300 299 299 299 299 299 300 300 300 300 300 301 302 302 302 302 301 300 299 298 298 298 298 297 298 298 298 298 297 296 295 295 295 295 295 295 295
299 299 300 301 300 301 300 300 300 300 299 299 299 300 300 299 299 300 302 302 302 301 301 302 301 299 299 298 297 298 298 298 298 297 297 296 295 295 295 295 295 294 294 294
Wind_Speed
9 4 4 6 9 9 11 4 7 5 6 3 12 14 14 8 7 10 13 14 14 14 13 15 15 16 17 17 17 17 18 19 20 22 23 24 25 23 22 21 21 20 20 20
4 7 8 1 5 9 9 4 1 2 4 2 4 13 13 12 11 12 14 14 14 12 12 13 15 17 19 18 19 18 19 19 20 20 21 21 18 20 20 20 21 20 20 20
5 2 14 8 2 5 8 7 6 4 2 1 5 10 14 12 16 16 13 13 11 11 12 11 13 16 19 20 20 21 22 22 22 22 21 22 22 23 22 22 23 22 22 22
8 3 8 8 4 3 3 9 8 5 5 2 2 4 3 8 7 9 14 15 15 12 11 13 13 15 17 20 21 19 20 21 23 24 24 22 22 22 19 18 20 21 22 22
3 4 9 10 6 15 6 7 7 5 4 5 6 4 3 3 3 7 3 3 5 8 12 14 16 17 17 21 19 19 18 17 17 17 18 19 20 20 21 21 23 22 21 22
4 2 1 1 3 11 7 7 2 6 3 5 10 5 7 1 4 5 4 5 6 7 8 12 19 20 23 22 20 19 18 17 16 16 18 19 20 22 23 23 23 21 20 20
3 3 1 2 6 5 8 8 1 3 3 5 2 4 11 10 6 4 8 9 10 9 6 5 7 11 14 16 18 18 17 16 16 17 18 18 18 18 18 19 19 18 17 17
5 5 5 4 2 3 9 8 3 2 3 1 2 6 2 2 5 7 8 11 11 6 3 2 3 5 7 9 11 12 12 11 10 9 8 8 7 7 8 9 10 12 13 14
1 2 2 1 2 2 4 6 6 3 1 3 5 6 6 6 4 3 6 9 7 4 4 4 4 4 6 7 8 9 8 7 6 5 3 2 2 2 3 4 5 6 8 10
4 2 1 3 1 2 3 9 4 3 3 4 6 5 8 3 6 8 11 10 6 6 5 5 4 5 6 7 8 8 8 7 5 4 3 2 2 2 3 3 4 4 4 6
4 2 3 3 7 6 3 3 2 5 3 3 3 3 6 8 6 8 12 10 7 5 5 6 6 6 8 8 8 8 7 6 5 4 2 1 1 2 3 4 4 4 5 5
2 3 2 3 3 3 5 8 10 4 5 5 3 5 8 6 5 9 16 11 7 5 6 7 8 9 10 9 9 8 8 7 5 3 1 1 2 4 4 5 5 5 5 6
1 1 3 1 2 3 5 7 4 2 1 6 3 4 3 7 3 10 14 10 10 7 6 8 10 11 11 11 10 9 7 5 3 1 2 4 5 6 6 6 6 6 6 6
3 2 3 4 4 3 2 5 7 11 5 7 15 14 14 16 15 19 19 16 10 10 10 9 10 13 13 14 13 11 9 6 4 4 5 7 8 8 8 7 8 8 8 8
4 2 3 5 4 3 4 5 5 6 12 7 10 16 14 16 16 20 22 17 13 15 14 12 13 15 17 17 16 13 11 10 7 7 8 8 9 8 8 8 8 8 8 8
2 1 1 1 3 4 8 11 11 11 13 14 17 23 14 19 9 17 16 18 19 17 12 15 18 19 20 18 17 15 15 14 11 10 10 10 9 9 8 8 9 9 9 9
2 2 1 0 5 5 5 10 12 11 11 14 15 19 12 14 15 17 18 16 19 20 18 20 18 23 22 20 18 18 18 18 15 13 14 13 11 10 10 10 10 10 11 11
5 2 1 2 2 5 2 7 8 9 13 12 14 18 14 13 15 17 15 15 18 21 20 19 22 22 25 27 25 23 23 23 19 17 17 15 13 11 10 10 11 12 13 13
12 6 2 3 6 7 9 9 5 5 11 14 17 16 13 4 8 7 5 9 18 24 25 23 23 27 30 28 26 27 23 23 21 19 18 16 13 11 9 10 12 13 15 15
7 11 5 4 5 4 8 6 3 1 8 14 7 4 4 5 7 8 18 21 25 26 25 23 20 21 24 27 24 25 27 22 24 20 18 15 12 10 9 10 12 14 15 16
5 4 12 10 7 5 15 11 2 3 5 6 6 6 9 7 9 18 22 23 25 29 25 22 22 23 20 21 25 25 27 27 23 20 17 14 11 9 10 12 14 14 15 15
8 8 6 7 5 10 14 6 7 9 5 8 9 14 10 12 16 20 23 24 24 26 25 19 17 18 17 16 19 22 22 21 19 17 14 11 10 11 12 14 14 14 15 15
6 9 4 8 6 8 8 12 15 14 12 15 14 15 16 17 20 22 24 24 23 22 20 18 15 13 11 9 11 14 16 17 17 14 12 11 12 12 13 14 13 13 13 13
6 12 4 5 12 21 19 19 25 27 23 29 24 25 22 24 19 18 20 18 16 14 13 11 9 5 4 3 8 11 12 13 13 12 12 11 12 13 14 14 13 13 13 14
7 8 6 9 22 20 23 27 31 31 26 28 25 23 15 16 19 21 20 17 14 8 9 7 6 5 3 4 7 9 10 11 12 12 13 13 14 14 13 13 12 12 13 14
14 12 9 10 23 16 20 26 21 22 24 26 25 24 25 25 24 21 17 15 14 13 12 12 11 8 10 12 10 12 14 16 16 16 16 15 15 14 14 13 13 13 13 14
Wind_Direction
128 138 208 195 292 307 320 271 221 33 41 283 230 245 244 186 228 232 220 212 208 202 197 200 204 205 205 211 214 217 221 226 227 234 237 242 246 250 253 256 259 259 259 260
158 240 189 108 280 287 292 340 152 109 32 287 263 260 248 246 240 241 235 223 219 208 198 203 207 211 220 222 226 226 229 227 231 230 239 243 249 253 256 257 257 257 258 259
265 324 151 143 258 266 278 303 36 26 17 201 301 268 243 234 241 240 240 244 240 227 218 208 212 219 226 228 231 232 231 231 231 233 236 241 244 249 253 254 259 260 259 258
241 190 190 170 176 240 273 347 323 306 327 276 328 276 210 219 231 227 239 242 246 239 233 219 222 225 230 231 235 236 238 237 238 238 239 242 249 255 262 266 260 264 263 257
131 190 170 166 218 165 219 335 13 349 295 305 227 257 253 128 246 244 247 277 275 252 239 237 238 232 225 235 233 233 234 235 234 237 240 246 251 256 259 258 265 267 266 264
74 18 205 88 164 207 151 156 338 331 311 262 239 238 260 245 24 17 25 26 357 315 277 246 233 233 234 235 234 233 234 236 239 245 251 255 260 263 266 270 271 272 269 268
162 140 158 207 136 145 225 135 73 200 201 254 78 228 260 322 352 334 305 308 315 313 307 271 241 232 234 231 231 232 235 241 246 251 255 259 262 266 269 269 270 269 271 269
202 182 180 153 268 202 203 157 161 246 221 256 134 236 147 356 325 308 285 287 301 285 285 256 219 203 207 209 215 221 226 231 237 242 247 252 258 266 274 276 274 269 264 268
241 180 156 59 330 297 165 199 112 77 85 285 235 250 260 264 100 57 358 342 313 262 252 227 220 207 196 190 189 191 189 188 188 186 190 204 230 251 267 283 288 280 268 262
7 268 74 93 91 62 266 137 97 95 249 238 249 267 256 176 45 23 6 344 322 268 250 239 219 213 202 188 182 180 180 178 173 171 183 211 247 274 286 290 291 292 283 268
341 308 114 174 202 196 149 185 177 154 234 288 298 264 73 65 32 356 352 343 333 294 269 262 243 225 216 203 192 183 172 165 161 158 156 180 291 302 305 305 298 292 282 270
0 333 231 199 44 343 310 226 194 212 201 236 336 265 83 85 69 28 7 2 346 310 286 263 244 229 218 204 193 179 166 159 150 139 138 336 324 318 316 315 307 303 294 284
85 73 183 217 288 210 232 211 203 118 251 212 240 247 78 91 26 351 346 353 338 316 293 266 238 226 218 205 192 188 184 170 168 200 298 311 308 306 305 305 303 300 296 290
296 347 68 27 29 19 321 265 246 225 244 253 233 271 292 314 326 323 331 330 318 320 293 257 242 225 215 206 203 205 204 205 226 260 292 298 298 296 296 299 298 299 297 293
351 18 351 310 303 246 256 247 259 270 244 259 287 297 297 302 300 317 317 310 290 288 286 256 232 229 222 220 221 222 223 227 243 270 283 289 289 289 292 297 298 299 296 293
31 69 2 276 357 323 285 277 261 245 240 254 262 267 276 280 311 310 311 307 302 301 297 273 245 228 227 233 237 236 233 234 249 267 280 281 280 286 292 295 298 298 297 296
22 122 358 285 351 309 260 246 244 251 242 245 257 275 334 339 319 298 304 300 295 303 304 297 284 250 240 241 243 245 242 241 249 265 273 271 271 279 291 299 303 301 297 295
143 153 262 308 318 245 311 276 262 279 280 278 282 289 302 314 304 301 304 302 312 311 305 294 293 282 263 253 248 247 244 240 244 258 258 254 259 271 280 287 292 293 292 290
224 196 215 242 231 309 298 272 201 229 285 292 278 288 321 3 307 316 57 346 325 317 314 300 297 277 277 273 269 248 248 242 242 253 245 242 250 252 262 278 288 291 291 288
248 233 211 192 248 250 259 79 77 111 283 276 274 306 347 336 314 303 344 331 330 322 311 305 298 291 272 266 251 248 244 240 242 239 232 234 238 248 267 282 288 288 285 282
148 207 225 231 241 248 262 281 291 248 253 359 307 302 312 306 303 303 311 312 319 322 310 306 290 288 288 268 245 240 239 239 233 225 222 223 233 255 275 285 286 285 284 283
177 182 199 220 243 252 243 226 220 243 279 293 286 290 283 301 301 304 306 303 312 314 312 301 300 293 284 264 243 233 225 221 220 216 217 223 242 263 273 276 278 280 279 278
236 212 218 210 218 247 215 232 230 249 271 279 278 288 289 296 300 304 303 301 309 309 304 302 300 295 286 265 230 226 212 204 203 208 217 236 255 269 278 282 284 282 279 278
227 238 236 234 241 251 254 257 265 269 264 277 274 280 282 292 290 298 302 293 298 315 311 302 307 320 289 223 218 195 201 201 208 221 238 257 272 279 281 278 276 276 276 275
227 168 215 254 260 269 266 259 265 270 274 279 284 283 270 284 286 291 287 284 269 288 320 329 323 313 292 230 213 216 226 236 245 257 265 272 278 278 273 269 268 270 272 272
211 228 225 247 259 260 268 268 268 268 271 280 279 285 285 280 285 282 270 273 278 274 276 271 276 296 293 280 264 254 254 261 264 267 271 273 272 267 261 260 263 267 267 266